Location: Helsinki
(60.1699°N, 24.9384°E)
Time: 23:03:39
(UTC+02:00)

Vanguard 2 Rocket - Pass Details

Date: 29 September 2023
Orbit: 553 x 3312 km, 32.9° (Epoch: 28 November)

Event Time Altitude Azimuth Distance (km) Brightness Sun altitude
Rises 11:32:19 0° 206° (SSW) 6,393 11.7 24.6°
Reaches altitude 10° 11:37:57 10° 192° (SSW) 5,753 11.9 24.9°
Maximum altitude 11:49:34 21° 153° (SSE) 5,315 13.7 25.5°
Drops below altitude 10° 12:01:58 10° 114° (ESE) 6,202 11.9 26.0°
Sets 12:08:22 0° 101° (ESE) 7,024 11.8 26.3°
